GW3424 Weather Reports


Display with metric or nautical units.
time (UTC)temp
F
wind
direction
speed
MPH
gust
MPH
rain 1hr
in
rain 24hr
in
rain mn
in
humidity
%
barometer
mb
20260510184049 103 360 2.0 4.0 0.00 0.00 0.00 9 974.5
20260510183549 101 360 1.0 9.0 0.00 0.00 0.00 10 974.5
20260510183051 100 360 3.0 9.0 0.00 0.00 0.00 10 974.7
20260510182549 100 360 4.0 9.0 0.00 0.00 0.00 10 974.6
20260510182049 99 360 2.0 8.0 0.00 0.00 0.00 11 974.7
20260510181604 99 360 4.0 9.0 0.00 0.00 0.00 10 974.8
20260510181050 98 360 3.0 9.0 0.00 0.00 0.00 10 974.8
20260510180549 98 360 3.0 8.0 0.00 0.00 0.00 10 974.7
20260510180056 97 360 2.0 6.0 0.00 0.00 0.00 11 974.8
20260510175549 96 360 2.0 5.0 0.00 0.00 0.00 13 974.8
20260510175049 95 360 2.0 6.0 0.00 0.00 0.00 14 974.9
20260510174603 94 360 3.0 6.0 0.00 0.00 0.00 15 974.9
20260510174049 94 360 1.0 10.0 0.00 0.00 0.00 14 974.8
20260510173551 93 360 5.0 10.0 0.00 0.00 0.00 15 974.9
20260510173054 93 360 4.0 8.0 0.00 0.00 0.00 16 975.0
20260510172549 93 360 3.0 6.0 0.00 0.00 0.00 17 974.9
20260510172049 92 360 3.0 6.0 0.00 0.00 0.00 15 974.9
20260510171617 92 360 3.0 6.0 0.00 0.00 0.00 16 974.8
20260510171049 92 360 3.0 6.0 0.00 0.00 0.00 17 974.9
20260510170553 92 360 3.0 6.0 0.00 0.00 0.00 16 974.9
20260510170052 92 360 3.0 6.0 0.00 0.00 0.00 15 974.8
20260510165552 91 360 2.0 6.0 0.00 0.00 0.00 16 974.8
20260510165048 91 360 3.0 5.0 0.00 0.00 0.00 16 974.7
20260510164558 90 360 0.0 4.0 0.00 0.00 0.00 15 974.8
20260510164049 89 360 3.0 4.0 0.00 0.00 0.00 15 974.9
20260510163549 89 360 1.0 5.0 0.00 0.00 0.00 15 974.8
20260510163056 88 360 2.0 5.0 0.00 0.00 0.00 15 974.8
20260510162549 88 360 2.0 6.0 0.00 0.00 0.00 18 974.8
20260510162049 88 360 3.0 6.0 0.00 0.00 0.00 20 974.8
20260510161549 88 360 4.0 8.0 0.00 0.00 0.00 19 974.8
20260510161049 87 360 2.0 8.0 0.00 0.00 0.00 17 974.7
20260510160549 87 360 4.0 6.0 0.00 0.00 0.00 19 974.6
20260510160050 87 360 2.0 6.0 0.00 0.00 0.00 18 974.7
20260510155549 86 360 4.0 9.0 0.00 0.00 0.00 18 974.7
20260510155049 86 360 4.0 9.0 0.00 0.00 0.00 19 974.7
20260510154551 85 360 2.0 5.0 0.00 0.00 0.00 19 974.6
20260510154048 85 360 3.0 8.0 0.00 0.00 0.00 19 974.6
20260510153550 85 360 3.0 8.0 0.00 0.00 0.00 19 974.7
20260510153056 84 360 4.0 9.0 0.00 0.00 0.00 19 974.7
20260510152550 84 360 4.0 8.0 0.00 0.00 0.00 20 974.8
20260510152049 83 360 5.0 8.0 0.00 0.00 0.00 19 974.7
20260510151549 83 360 4.0 8.0 0.00 0.00 0.00 19 974.5
20260510151049 82 360 4.0 8.0 0.00 0.00 0.00 19 974.6
20260510150550 82 360 7.0 8.0 0.00 0.00 0.00 18 974.6
20260510150053 81 360 6.0 8.0 0.00 0.00 0.00 19 974.6
20260510145549 81 360 6.0 10.0 0.00 0.00 0.00 19 974.5
20260510145049 81 360 8.0 10.0 0.00 0.00 0.00 18 974.6
20260510144559 81 360 7.0 11.0 0.00 0.00 0.00 18 974.5
20260510144048 81 360 8.0 11.0 0.00 0.00 0.00 18 974.6
20260510143548 81 360 7.0 11.0 0.00 0.00 0.00 17 974.4
20260510143049 81 360 7.0 10.0 0.00 0.00 0.00 16 974.5
20260510142549 81 360 6.0 13.0 0.00 0.00 0.00 17 974.3
20260510142049 80 360 9.0 13.0 0.00 0.00 0.00 17 974.4
20260510141549 79 360 9.0 12.0 0.00 0.00 0.00 17 974.4
20260510141049 78 360 9.0 14.0 0.00 0.00 0.00 17 974.4
20260510140550 77 360 11.0 14.0 0.00 0.00 0.00 18 974.2
20260510140049 76 360 9.0 12.0 0.00 0.00 0.00 19 974.3
20260510135549 75 360 7.0 10.0 0.00 0.00 0.00 21 974.0
20260510135050 74 360 4.0 8.0 0.00 0.00 0.00 24 974.0
20260510134550 74 360 3.0 5.0 0.00 0.00 0.00 23 974.0
20260510134048 74 360 2.0 4.0 0.00 0.00 0.00 21 973.9
20260510133549 73 360 1.0 3.0 0.00 0.00 0.00 21 974.0
20260510133049 73 360 1.0 4.0 0.00 0.00 0.00 21 973.8
20260510132549 72 360 2.0 4.0 0.00 0.00 0.00 22 973.7
20260510132049 71 360 3.0 9.0 0.00 0.00 0.00 22 973.5
20260510131550 71 360 4.0 9.0 0.00 0.00 0.00 23 973.4
20260510131052 70 360 6.0 9.0 0.00 0.00 0.00 24 973.4
20260510130549 70 360 4.0 6.0 0.00 0.00 0.00 24 973.3
20260510130049 70 360 4.0 8.0 0.00 0.00 0.00 24 973.2
20260510125550 69 360 4.0 8.0 0.00 0.00 0.00 24 973.2
20260510125049 70 360 4.0 9.0 0.00 0.00 0.00 24 973.1
20260510124551 71 360 5.0 9.0 0.00 0.00 0.00 23 973.1
20260510124049 74 360 7.0 9.0 0.00 0.00 0.00 21 973.0
20260510123549 76 360 5.0 9.0 0.00 0.00 0.00 19 973.0
20260510123052 77 360 6.0 11.0 0.00 0.00 0.00 18 973.0
20260510122551 78 360 8.0 11.0 0.00 0.00 0.00 17 972.9
20260510122049 79 360 7.0 11.0 0.00 0.00 0.00 16 972.9
20260510121549 79 360 7.0 13.0 0.00 0.00 0.00 16 972.8
20260510121049 79 360 10.0 13.0 0.00 0.00 0.00 16 972.9
20260510120549 79 360 10.0 14.0 0.00 0.00 0.00 16 972.8
20260510120049 78 360 11.0 14.0 0.00 0.00 0.00 17 972.8
20260510115549 77 360 10.0 12.0 0.00 0.00 0.00 18 972.8
20260510115049 76 360 9.0 12.0 0.00 0.00 0.00 18 972.8
20260510114558 75 360 5.0 9.0 0.00 0.00 0.00 19 972.8
20260510114049 75 360 4.0 8.0 0.00 0.00 0.00 19 972.9
20260510113550 76 360 5.0 10.0 0.00 0.00 0.00 19 972.7
20260510113056 77 360 5.0 10.0 0.00 0.00 0.00 19 972.6
20260510112549 78 360 3.0 4.0 0.00 0.00 0.00 19 972.7
20260510112049 78 360 0.0 3.0 0.00 0.00 0.00 19 972.5
20260510111549 78 360 1.0 2.0 0.00 0.00 0.00 17 972.5
20260510111049 78 360 0.0 3.0 0.00 0.00 0.00 18 972.4
20260510110549 78 360 1.0 5.0 0.00 0.00 0.00 19 972.4
20260510110055 78 360 2.0 5.0 0.00 0.00 0.00 19 972.5
20260510105549 78 360 3.0 4.0 0.00 0.00 0.00 19 972.6
20260510105049 78 360 1.0 4.0 0.00 0.00 0.00 19 972.4
20260510104550 78 360 2.0 4.0 0.00 0.00 0.00 19 972.4
20260510104049 79 360 1.0 5.0 0.00 0.00 0.00 18 972.3
20260510103549 79 360 2.0 5.0 0.00 0.00 0.00 18 972.2
20260510103053 79 360 2.0 5.0 0.00 0.00 0.00 18 972.2
20260510102549 79 360 2.0 5.0 0.00 0.00 0.00 17 972.3
20260510102048 80 360 1.0 4.0 0.00 0.00 0.00 16 972.1
20260510101600 81 360 3.0 4.0 0.00 0.00 0.00 16 972.2
20260510101049 81 360 2.0 9.0 0.00 0.00 0.00 16 972.1
20260510100549 82 360 3.0 9.0 0.00 0.00 0.00 15 972.0
20260510100054 83 360 3.0 11.0 0.00 0.00 0.00 14 972.1
20260510095549 84 360 8.0 11.0 0.00 0.00 0.00 14 972.0
20260510095048 87 360 7.0 10.0 0.00 0.00 0.00 15 971.9
20260510094552 90 360 5.0 10.0 0.00 0.00 0.00 12 971.8
20260510094052 91 360 6.0 16.0 0.00 0.00 0.00 11 971.6
20260510093549 91 360 7.0 16.0 0.00 0.00 0.00 10 971.6
20260510093049 91 360 8.0 14.0 0.00 0.00 0.00 10 972.1
20260510092552 91 360 10.0 14.0 0.00 0.00 0.00 9 971.6
20260510092048 91 360 8.0 13.0 0.00 0.00 0.00 9 971.5
20260510091549 91 360 7.0 14.0 0.00 0.00 0.00 10 971.5
20260510091049 91 360 7.0 14.0 0.00 0.00 0.00 10 971.4
20260510090549 91 360 5.0 12.0 0.00 0.00 0.00 10 971.3
20260510090050 91 360 9.0 14.0 0.00 0.00 0.00 9 971.4
20260510085549 91 360 9.0 14.0 0.00 0.00 0.00 9 971.5
20260510085051 91 360 9.0 14.0 0.00 0.00 0.00 9 971.4
20260510084607 91 360 6.0 13.0 0.00 0.00 0.00 9 971.3
20260510084049 91 360 8.0 13.0 0.00 0.00 0.00 9 971.5
20260510083548 91 360 7.0 17.0 0.00 0.00 0.00 9 971.4
20260510083052 91 360 10.0 17.0 0.00 0.00 0.00 9 971.4
20260510082549 91 360 10.0 15.0 0.00 0.00 0.00 9 971.4
20260510082049 90 360 10.0 15.0 0.00 0.00 0.00 9 971.4
20260510081549 90 360 9.0 15.0 0.00 0.00 0.00 9 971.5
20260510081049 90 360 7.0 12.0 0.00 0.00 0.00 9 971.5
20260510080548 90 360 5.0 13.0 0.00 0.00 0.00 10 971.5
20260510080100 90 360 4.0 14.0 0.00 0.00 0.00 10 971.5
20260510075549 89 360 7.0 14.0 0.00 0.00 0.00 10 971.5
20260510075049 89 360 8.0 12.0 0.00 0.00 0.00 10 971.5
20260510074552 89 360 8.0 12.0 0.00 0.00 0.00 10 971.8
20260510074052 89 360 8.0 12.0 0.00 0.00 0.00 10 971.7
20260510073549 89 360 6.0 11.0 0.00 0.00 0.00 10 971.7
20260510073053 90 360 5.0 12.0 0.00 0.00 0.00 10 971.5
20260510072549 91 360 5.0 13.0 0.00 0.00 0.00 10 971.6
20260510072049 91 360 6.0 11.0 0.00 0.00 0.00 10 971.7
20260510071549 91 360 5.0 12.0 0.00 0.00 0.00 10 971.6
20260510071049 91 360 8.0 13.0 0.00 0.00 0.00 10 971.6
20260510070549 90 360 9.0 15.0 0.00 0.00 0.00 10 971.6
20260510070056 90 360 9.0 15.0 0.00 0.00 0.00 10 971.4
20260510065549 90 360 9.0 15.0 0.00 0.00 0.00 10 971.5
20260510065048 89 360 5.0 12.0 0.00 0.00 0.00 10 971.5
20260510064551 89 360 5.0 12.0 0.00 0.00 0.00 10 971.5
20260510064048 88 360 6.0 12.0 0.00 0.00 0.00 11 971.4
20260510063549 87 360 4.0 12.0 0.00 0.00 0.00 12 971.5
20260510063049 87 360 5.0 11.0 0.00 0.00 0.00 13 971.4
20260510062548 86 360 8.0 11.0 0.00 0.00 0.00 13 971.5
20260510062049 86 360 4.0 8.0 0.00 0.00 0.00 14 971.5
20260510061549 86 360 5.0 8.0 0.00 0.00 0.00 14 971.5
20260510061051 86 360 4.0 9.0 0.00 0.00 0.00 15 971.3
20260510060549 86 360 5.0 9.0 0.00 0.00 0.00 15 971.4
20260510060050 86 360 4.0 10.0 0.00 0.00 0.00 16 971.3
20260510055551 86 360 7.0 13.0 0.00 0.00 0.00 15 971.3
20260510055049 86 360 9.0 12.0 0.00 0.00 0.00 15 971.3
20260510054549 87 360 6.0 10.0 0.00 0.00 0.00 15 971.1
20260510054049 88 360 5.0 10.0 0.00 0.00 0.00 13 971.1
20260510053548 89 360 3.0 9.0 0.00 0.00 0.00 16 971.1
20260510053053 90 360 5.0 9.0 0.00 0.00 0.00 15 971.2
20260510052550 92 360 4.0 12.0 0.00 0.00 0.00 13 971.1
20260510052049 93 360 8.0 12.0 0.00 0.00 0.00 10 971.0
20260510051602 93 360 5.0 13.0 0.00 0.00 0.00 10 971.1
20260510051048 94 360 7.0 13.0 0.00 0.00 0.00 10 971.0
20260510050553 94 360 8.0 12.0 0.00 0.00 0.00 9 970.9
20260510050059 94 360 7.0 13.0 0.00 0.00 0.00 9 971.1
20260510045549 94 360 7.0 13.0 0.00 0.00 0.00 9 971.0
20260510045049 94 360 7.0 13.0 0.00 0.00 0.00 9 970.9
20260510044549 95 360 7.0 12.0 0.00 0.00 0.00 9 970.9
20260510044049 95 360 8.0 12.0 0.00 0.00 0.00 9 970.7
20260510043549 95 360 7.0 13.0 0.00 0.00 0.00 9 970.8
20260510043049 95 360 8.0 13.0 0.00 0.00 0.00 9 970.7
20260510042549 95 360 4.0 11.0 0.00 0.00 0.00 9 970.6
20260510042049 95 360 6.0 12.0 0.00 0.00 0.00 8 970.6
20260510041551 95 360 6.0 12.0 0.00 0.00 0.00 9 970.6
20260510041049 95 360 6.0 10.0 0.00 0.00 0.00 9 970.5
20260510040551 95 360 3.0 10.0 0.00 0.00 0.00 8 970.4
20260510040053 95 360 7.0 10.0 0.00 0.00 0.00 8 970.4
20260510035549 95 360 5.0 10.0 0.00 0.00 0.00 8 970.4
20260510035049 95 360 5.0 10.0 0.00 0.00 0.00 8 970.3
20260510034549 96 360 4.0 10.0 0.00 0.00 0.00 8 970.3
20260510034049 96 360 5.0 10.0 0.00 0.00 0.00 8 970.2
20260510033549 96 360 5.0 8.0 0.00 0.00 0.00 8 970.3
20260510033056 97 360 5.0 11.0 0.00 0.00 0.00 8 970.3
20260510032549 97 360 5.0 11.0 0.00 0.00 0.00 8 970.0
20260510032049 97 360 6.0 11.0 0.00 0.00 0.00 8 970.0
20260510031551 97 360 4.0 10.0 0.00 0.00 0.00 8 969.9
20260510031049 97 360 4.0 10.0 0.00 0.00 0.00 8 969.9
20260510030548 97 360 5.0 10.0 0.00 0.00 0.00 8 969.9
20260510030049 98 360 5.0 10.0 0.00 0.00 0.00 8 969.6
20260510025549 98 360 6.0 10.0 0.00 0.00 0.00 8 969.5
20260510025049 98 360 4.0 10.0 0.00 0.00 0.00 8 969.6
20260510024549 98 360 6.0 11.0 0.00 0.00 0.00 8 969.5
20260510024048 98 360 6.0 11.0 0.00 0.00 0.00 8 969.5
20260510023549 98 360 6.0 12.0 0.00 0.00 0.00 8 969.4
20260510023049 98 360 5.0 13.0 0.00 0.00 0.00 8 969.3
20260510022549 98 360 6.0 14.0 0.00 0.00 0.00 8 969.4
20260510022049 98 360 6.0 14.0 0.00 0.00 0.00 8 969.4
20260510021640 99 360 6.0 11.0 0.00 0.00 0.00 8 969.2
20260510021048 99 360 5.0 10.0 0.00 0.00 0.00 9 969.2
20260510020549 99 360 6.0 11.0 0.00 0.00 0.00 9 969.2
20260510020050 99 285 8.0 11.0 0.00 0.00 0.00 8 969.3
20260510015552 99 271 7.0 11.0 0.00 0.00 0.00 9 969.1
20260510015048 99 289 6.0 12.0 0.00 0.00 0.00 9 969.2
20260510014556 100 292 9.0 13.0 0.00 0.00 0.00 9 969.1
20260510014049 100 360 9.0 15.0 0.00 0.00 0.00 9 969.2
20260510013549 100 360 10.0 16.0 0.00 0.00 0.00 8 969.2
20260510013058 100 360 11.0 18.0 0.00 0.00 0.00 8 969.1
20260510012549 100 360 11.0 18.0 0.00 0.00 0.00 8 969.1
20260510012049 101 360 12.0 17.0 0.00 0.00 0.00 9 969.2
20260510011549 101 360 11.0 15.0 0.00 0.00 0.00 9 969.2
20260510011048 101 360 10.0 20.0 0.00 0.00 0.00 8 969.1
20260510010548 101 360 14.0 20.0 0.00 0.00 0.00 8 968.9
20260510010056 101 360 10.0 17.0 0.00 0.00 0.00 8 969.2
20260510005549 101 360 10.0 18.0 0.00 0.00 0.00 8 969.2
20260510005048 101 360 11.0 18.0 0.00 0.00 0.00 8 969.2
20260510004549 102 360 11.0 16.0 0.00 0.00 0.00 8 969.1
20260510004049 102 360 10.0 17.0 0.00 0.00 0.00 8 969.1
20260510003549 102 360 11.0 17.0 0.00 0.00 0.00 7 969.2
20260510003049 102 360 13.0 18.0 0.00 0.00 0.00 8 969.3
20260510002550 102 360 12.0 19.0 0.00 0.00 0.00 8 969.2
20260510002049 102 360 14.0 19.0 0.00 0.00 0.00 8 969.2
20260510001549 102 360 12.0 19.0 0.00 0.00 0.00 8 969.2
20260510001049 102 360 8.0 14.0 0.00 0.00 0.00 8 969.4
20260510000548 102 360 10.0 15.0 0.00 0.00 0.00 8 969.3
20260510000050 102 360 8.0 17.0 0.00 0.00 0.00 8 969.3
20260509235549 102 360 12.0 17.0 0.00 0.00 0.00 8 969.4
20260509235049 102 360 12.0 19.0 0.00 0.00 0.00 8 969.6
20260509234549 102 360 13.0 19.0 0.00 0.00 0.00 8 969.5
20260509234049 103 360 12.0 18.0 0.00 0.00 0.00 8 969.4
20260509233550 102 360 7.0 16.0 0.00 0.00 0.00 8 969.5
20260509233049 102 360 11.0 16.0 0.00 0.00 0.00 8 969.6
20260509232549 103 360 8.0 18.0 0.00 0.00 0.00 8 969.5
20260509232049 103 360 9.0 18.0 0.00 0.00 0.00 8 969.5
20260509231551 103 360 10.0 15.0 0.00 0.00 0.00 9 969.5
20260509231049 102 360 9.0 16.0 0.00 0.00 0.00 9 969.6
20260509230549 102 360 11.0 16.0 0.00 0.00 0.00 9 969.7
20260509230051 102 360 8.0 15.0 0.00 0.00 0.00 9 969.5
20260509225548 103 360 10.0 16.0 0.00 0.00 0.00 9 969.7
20260509225048 103 360 7.0 13.0 0.00 0.00 0.00 9 969.9
20260509224549 103 360 9.0 13.0 0.00 0.00 0.00 8 969.9
20260509224049 103 360 6.0 16.0 0.00 0.00 0.00 8 969.8
20260509223549 103 360 7.0 15.0 0.00 0.00 0.00 9 969.8
20260509223052 103 360 6.0 15.0 0.00 0.00 0.00 9 970.1
20260509222549 102 360 11.0 15.0 0.00 0.00 0.00 9 970.1
20260509222049 103 360 8.0 15.0 0.00 0.00 0.00 9 970.1
20260509221550 103 360 7.0 15.0 0.00 0.00 0.00 8 970.2
20260509221049 103 360 8.0 12.0 0.00 0.00 0.00 9 970.2
20260509220548 102 360 6.0 11.0 0.00 0.00 0.00 9 970.4
20260509220051 102 360 4.0 11.0 0.00 0.00 0.00 9 970.4
20260509215550 102 360 6.0 14.0 0.00 0.00 0.00 9 970.5
20260509215050 102 360 10.0 15.0 0.00 0.00 0.00 9 970.6
20260509214549 102 360 9.0 16.0 0.00 0.00 0.00 10 970.6
20260509214049 102 360 8.0 18.0 0.00 0.00 0.00 11 970.8
20260509213549 102 360 12.0 18.0 0.00 0.00 0.00 10 970.9
20260509213103 102 360 8.0 17.0 0.00 0.00 0.00 9 970.8
20260509212548 102 360 12.0 17.0 0.00 0.00 0.00 9 971.0
20260509212048 102 360 6.0 13.0 0.00 0.00 0.00 10 971.1
20260509211554 102 360 9.0 13.0 0.00 0.00 0.00 11 971.1
20260509211049 102 360 3.0 13.0 0.00 0.00 0.00 10 971.1
20260509210549 102 360 4.0 14.0 0.00 0.00 0.00 10 971.3
20260509210051 101 360 5.0 14.0 0.00 0.00 0.00 9 971.4
20260509205552 101 360 8.0 14.0 0.00 0.00 0.00 10 971.5
20260509205049 101 360 6.0 14.0 0.00 0.00 0.00 10 971.6
20260509204549 101 360 6.0 14.0 0.00 0.00 0.00 10 971.7
20260509204049 101 360 10.0 14.0 0.00 0.00 0.00 10 971.9
20260509203548 101 360 4.0 12.0 0.00 0.00 0.00 10 971.9
20260509203049 100 360 6.0 17.0 0.00 0.00 0.00 9 971.9
20260509202549 100 360 10.0 17.0 0.00 0.00 0.00 9 972.0
20260509202049 100 360 9.0 21.0 0.00 0.00 0.00 9 972.1
20260509201549 100 360 11.0 21.0 0.00 0.00 0.00 8 972.2
20260509201048 100 360 11.0 14.0 0.00 0.00 0.00 9 972.2
20260509200549 99 360 3.0 11.0 0.00 0.00 0.00 10 972.3
20260509200053 99 360 7.0 14.0 0.00 0.00 0.00 11 972.4
20260509195548 99 360 8.0 14.0 0.00 0.00 0.00 11 972.4
20260509195048 99 360 7.0 14.0 0.00 0.00 0.00 11 972.5
20260509194556 98 360 9.0 14.0 0.00 0.00 0.00 11 972.6
20260509194049 97 360 4.0 9.0 0.00 0.00 0.00 13 972.6
20260509193548 97 360 6.0 9.0 0.00 0.00 0.00 14 972.6
20260509193049 97 360 7.0 10.0 0.00 0.00 0.00 13 972.7
20260509192548 97 360 4.0 11.0 0.00 0.00 0.00 14 972.9
20260509192049 97 360 7.0 11.0 0.00 0.00 0.00 14 973.0
20260509191603 98 360 4.0 8.0 0.00 0.00 0.00 14 973.0
20260509191048 98 360 5.0 8.0 0.00 0.00 0.00 13 973.0
20260509190552 97 360 2.0 9.0 0.00 0.00 0.00 14 973.2
20260509190050 97 360 3.0 9.0 0.00 0.00 0.00 14 973.3
20260509185549 97 360 4.0 8.0 0.00 0.00 0.00 14 973.2
20260509185048 97 360 3.0 6.0 0.00 0.00 0.00 14 973.3
20260509184557 97 360 0.0 6.0 0.00 0.00 0.00 15 973.5